Location: Kalberh�ni
(46.4610°N, 7.2453°E)
Time: 02:45:44
(UTC+00:00)

MTI - Pass Details

Date: 20 June 2021
Orbit: 378 x 386 km, 97.5° (Epoch: 25 July)

Event Time Altitude Azimuth Distance (km) Brightness Sun altitude
Rises 23:22:38 0° 10° (N) 2,306 9.0 -20.1°
Reaches altitude 10° 23:24:37 10° 8° (N) 1,443 7.6 -20.1°
Enters shadow 23:27:35 68° 303° (WNW) 429 3.8 -20.1°
